• în Republica Moldova
  • Lista ţărilor
  • Pe 7 zile
  • Temperatura apei
  • Hartă satelitară
  • Meteo pe hartă
  • Widget-uri
  • user-avatar
    Intrare

    Meteo pe oră la Saurimo

    Astăzi, 25 Martie, Sâmbătă

    Timp Temperatura Precipitaţii Vânt Presiune Umiditate
    00:00 +21°C° 0 mm 1 m/s 671 mmHg 90%
    01:00 +21°C° 0 mm 1 m/s 670 mmHg 91%
    02:00 +20°C° 0 mm 1 m/s 670 mmHg 92%
    03:00 +20°C° 0 mm 1 m/s 670 mmHg 93%
    04:00 +18°C° 0 mm 0 m/s 670 mmHg 94%
    05:00 +19°C° 0 mm 0 m/s 670 mmHg 91%
    06:00 +20°C° 0 mm 0 m/s 671 mmHg 87%
    07:00 +21°C° 0 mm 0 m/s 672 mmHg 83%
    08:00 +24°C° 0 mm 0 m/s 672 mmHg 74%
    09:00 +27°C° 0 mm 0 m/s 673 mmHg 65%
    10:00 +29°C° 0 mm 0 m/s 674 mmHg 55%
    11:00 +32°C° 0 mm 1 m/s 673 mmHg 51%
    12:00 +32°C° 0 mm 1 m/s 672 mmHg 47%
    13:00 +33°C° 0 mm 1 m/s 672 mmHg 43%
    14:00 +32°C° 0 mm 1 m/s 671 mmHg 46%
    15:00 +32°C° 0 mm 1 m/s 671 mmHg 49%
    16:00 +31°C° 0 mm 1 m/s 670 mmHg 52%
    17:00 +29°C° 0 mm 1 m/s 670 mmHg 58%
    18:00 +26°C° 0 mm 1 m/s 669 mmHg 64%
    19:00 +24°C° 0 mm 1 m/s 669 mmHg 71%
    20:00 +23°C° 0 mm 1 m/s 669 mmHg 72%
    21:00 +23°C° 0 mm 1 m/s 670 mmHg 73%
    22:00 +23°C° 0 mm 1 m/s 670 mmHg 75%
    23:00 +22°C° 0 mm 1 m/s 670 mmHg 76%

    Mâine, 26 Martie, Duminică

    Timp Temperatura Precipitaţii Vânt Presiune Umiditate
    00:00 +22°C° 0 mm 1 m/s 670 mmHg 77%
    01:00 +22°C° 0 mm 1 m/s 670 mmHg 78%
    02:00 +22°C° 0 mm 1 m/s 670 mmHg 79%
    03:00 +21°C° 0 mm 1 m/s 669 mmHg 81%
    04:00 +21°C° 0 mm 1 m/s 669 mmHg 82%
    05:00 +22°C° 0 mm 1 m/s 670 mmHg 81%
    06:00 +22°C° 0 mm 1 m/s 670 mmHg 80%
    07:00 +23°C° 0 mm 1 m/s 671 mmHg 79%
    08:00 +25°C° 0,1 mm 1 m/s 672 mmHg 72%
    09:00 +27°C° 0,1 mm 1 m/s 672 mmHg 65%
    10:00 +29°C° 0,1 mm 2 m/s 673 mmHg 58%
    11:00 +30°C° 0,3 mm 2 m/s 672 mmHg 56%
    12:00 +31°C° 0,3 mm 1 m/s 671 mmHg 54%
    13:00 +31°C° 0,3 mm 1 m/s 671 mmHg 53%
    14:00 +31°C° 0,2 mm 1 m/s 670 mmHg 54%
    15:00 +29°C° 0,2 mm 0 m/s 670 mmHg 56%
    16:00 +28°C° 0,2 mm 0 m/s 669 mmHg 57%
    17:00 +26°C° 0,1 mm 0 m/s 669 mmHg 65%
    18:00 +24°C° 0,1 mm 0 m/s 669 mmHg 73%
    19:00 +21°C° 0,1 mm 0 m/s 668 mmHg 81%
    20:00 +23°C° 1,9 mm 1 m/s 669 mmHg 83%
    21:00 +23°C° 1,9 mm 1 m/s 669 mmHg 86%
    22:00 +23°C° 1,9 mm 1 m/s 670 mmHg 89%
    23:00 +22°C° 0,8 mm 1 m/s 670 mmHg 90%

    Poimâine, 27 Martie, Luni

    Timp Temperatura Precipitaţii Vânt Presiune Umiditate
    00:00 +22°C° 0,8 mm 1 m/s 669 mmHg 92%
    01:00 +21°C° 0,8 mm 1 m/s 669 mmHg 93%
    02:00 +21°C° 2,3 mm 1 m/s 669 mmHg 93%
    03:00 +21°C° 2,3 mm 1 m/s 669 mmHg 94%
    04:00 +21°C° 2,3 mm 1 m/s 669 mmHg 94%
    05:00 +22°C° 0,9 mm 1 m/s 670 mmHg 93%
    06:00 +22°C° 0,9 mm 1 m/s 670 mmHg 93%
    07:00 +22°C° 0,9 mm 1 m/s 671 mmHg 92%
    08:00 +23°C° 0,4 mm 1 m/s 671 mmHg 89%
    09:00 +24°C° 0,4 mm 1 m/s 672 mmHg 85%
    10:00 +26°C° 0,4 mm 1 m/s 673 mmHg 81%
    11:00 +26°C° 0,2 mm 1 m/s 672 mmHg 76%
    12:00 +27°C° 0,2 mm 1 m/s 671 mmHg 72%
    13:00 +28°C° 0,2 mm 1 m/s 671 mmHg 67%
    14:00 +28°C° 0,2 mm 1 m/s 670 mmHg 70%
    15:00 +28°C° 0,2 mm 1 m/s 670 mmHg 72%
    16:00 +27°C° 0,2 mm 1 m/s 669 mmHg 74%
    17:00 +26°C° 0,1 mm 1 m/s 669 mmHg 79%
    18:00 +25°C° 0,1 mm 1 m/s 670 mmHg 83%
    19:00 +23°C° 0,1 mm 1 m/s 670 mmHg 87%
    20:00 +23°C° 0 mm 1 m/s 670 mmHg 88%
    21:00 +23°C° 0 mm 1 m/s 670 mmHg 89%
    22:00 +23°C° 0 mm 1 m/s 671 mmHg 90%
    23:00 +22°C° 0,3 mm 1 m/s 670 mmHg 91%

    28 Martie, Marţi

    Timp Temperatura Precipitaţii Vânt Presiune Umiditate
    00:00 +22°C° 0,3 mm 1 m/s 670 mmHg 93%
    01:00 +22°C° 0,3 mm 1 m/s 669 mmHg 94%
    02:00 +22°C° 0,3 mm 1 m/s 669 mmHg 95%
    03:00 +21°C° 0,3 mm 1 m/s 669 mmHg 95%
    04:00 +21°C° 0,3 mm 1 m/s 669 mmHg 96%
    05:00 +21°C° 0,1 mm 1 m/s 670 mmHg 96%
    06:00 +22°C° 0,1 mm 1 m/s 670 mmHg 95%
    07:00 +22°C° 0,1 mm 1 m/s 671 mmHg 95%
    08:00 +24°C° 0,1 mm 2 m/s 671 mmHg 86%
    09:00 +26°C° 0,1 mm 2 m/s 672 mmHg 78%
    10:00 +27°C° 0,1 mm 3 m/s 672 mmHg 70%
    11:00 +28°C° 0,4 mm 3 m/s 671 mmHg 68%
    12:00 +28°C° 0,4 mm 2 m/s 671 mmHg 66%
    13:00 +29°C° 0,4 mm 2 m/s 670 mmHg 65%
    14:00 +28°C° 0,9 mm 2 m/s 669 mmHg 70%
    15:00 +28°C° 0,9 mm 2 m/s 669 mmHg 75%
    16:00 +27°C° 0,9 mm 1 m/s 669 mmHg 81%
    17:00 +26°C° 0,4 mm 1 m/s 669 mmHg 85%
    18:00 +24°C° 0,4 mm 1 m/s 669 mmHg 89%
    19:00 +23°C° 0,4 mm 1 m/s 669 mmHg 94%
    20:00 +23°C° 0,6 mm 1 m/s 670 mmHg 94%
    21:00 +22°C° 0,6 mm 1 m/s 670 mmHg 95%
    22:00 +22°C° 0,6 mm 1 m/s 670 mmHg 96%
    23:00 +22°C° 0,4 mm 1 m/s 670 mmHg 96%

    29 Martie, Miercuri

    Timp Temperatura Precipitaţii Vânt Presiune Umiditate
    00:00 +22°C° 0,4 mm 1 m/s 669 mmHg 96%
    01:00 +22°C° 0,4 mm 1 m/s 669 mmHg 96%
    02:00 +21°C° 0,1 mm 1 m/s 669 mmHg 96%
    03:00 +21°C° 0,1 mm 1 m/s 669 mmHg 97%
    04:00 +21°C° 0,1 mm 1 m/s 669 mmHg 97%
    05:00 +20°C° 0 mm 2 m/s 669 mmHg 95%
    06:00 +21°C° 0 mm 2 m/s 670 mmHg 94%
    07:00 +21°C° 0 mm 2 m/s 670 mmHg 93%
    08:00 +24°C° 0 mm 2 m/s 671 mmHg 83%
    09:00 +26°C° 0 mm 3 m/s 671 mmHg 74%
    10:00 +28°C° 0 mm 3 m/s 672 mmHg 65%
    11:00 +28°C° 0,4 mm 3 m/s 671 mmHg 64%
    12:00 +29°C° 0,4 mm 3 m/s 670 mmHg 63%
    13:00 +29°C° 0,4 mm 2 m/s 669 mmHg 62%
    14:00 +29°C° 0,6 mm 2 m/s 669 mmHg 66%
    15:00 +28°C° 0,6 mm 2 m/s 669 mmHg 70%
    16:00 +28°C° 0,6 mm 2 m/s 668 mmHg 74%
    17:00 +26°C° 1,8 mm 2 m/s 669 mmHg 80%
    18:00 +25°C° 1,8 mm 2 m/s 669 mmHg 86%
    19:00 +23°C° 1,8 mm 2 m/s 669 mmHg 92%
    20:00 +23°C° 0,9 mm 1 m/s 669 mmHg 93%
    21:00 +22°C° 0,9 mm 1 m/s 669 mmHg 94%
    22:00 +22°C° 0,9 mm 1 m/s 670 mmHg 95%
    23:00 +22°C° 1,1 mm 1 m/s 670 mmHg 95%

    30 Martie, Joi

    Timp Temperatura Precipitaţii Vânt Presiune Umiditate
    00:00 +22°C° 1,1 mm 1 m/s 669 mmHg 95%
    01:00 +22°C° 1,1 mm 1 m/s 669 mmHg 95%
    02:00 +22°C° 0,5 mm 1 m/s 669 mmHg 95%
    03:00 +20°C° 0,5 mm 0 m/s 669 mmHg 95%
    04:00 +19°C° 0,5 mm 0 m/s 670 mmHg 96%
    05:00 +20°C° 0,8 mm 0 m/s 670 mmHg 96%
    06:00 +20°C° 0,8 mm 0 m/s 671 mmHg 95%
    07:00 +22°C° 0,8 mm 1 m/s 671 mmHg 95%
    08:00 +22°C° 0,5 mm 1 m/s 671 mmHg 95%
    09:00 +22°C° 0,5 mm 1 m/s 671 mmHg 94%
    10:00 +22°C° 0,5 mm 1 m/s 672 mmHg 94%
    11:00 +23°C° 0,6 mm 1 m/s 671 mmHg 93%
    12:00 +23°C° 0,6 mm 1 m/s 671 mmHg 92%
    13:00 +21°C° 0,6 mm 0 m/s 670 mmHg 90%
    14:00 +21°C° 0,5 mm 0 m/s 670 mmHg 91%
    15:00 +23°C° 0,5 mm 1 m/s 670 mmHg 92%
    16:00 +23°C° 0,5 mm 1 m/s 670 mmHg 93%
    17:00 +22°C° 0,6 mm 1 m/s 670 mmHg 94%
    18:00 +22°C° 0,6 mm 1 m/s 670 mmHg 95%
    19:00 +22°C° 0,6 mm 1 m/s 671 mmHg 96%
    20:00 +22°C° 0,2 mm 1 m/s 671 mmHg 96%
    21:00 +21°C° 0,2 mm 1 m/s 671 mmHg 97%
    22:00 +21°C° 0,2 mm 1 m/s 671 mmHg 97%
    23:00 +21°C° 0,8 mm 1 m/s 671 mmHg 97%
    Arată mai mult